Theta_e
355 354 354 362 358 357 358 355 355 358 357 357 366 364 355 365 355 349 346 349 347 352 348 346 369 360 370 370 364 366 368 361 358 357 356 368 362 355 353 358 358 358 357 356 356 355 356 356 356 356 356 356 356 356 354 354 355 355 353 354 353 349 347 346 347 348 348 348 348 349 350 352 354 355
360 358 357 357 356 357 355 356 353 361 363 356 359 361 359 360 352 355 348 348 353 350 350 348 361 368 370 363 364 358 362 358 352 352 356 364 367 351 351 356 355 354 353 353 353 356 355 356 354 353 352 352 352 352 352 351 352 352 351 352 350 346 345 344 346 346 347 347 347 347 349 351 352 351
358 358 355 357 358 359 356 358 354 357 355 357 360 359 363 360 367 361 359 348 358 357 351 353 352 358 365 356 357 353 356 356 354 353 367 363 360 354 353 353 353 352 349 349 350 352 354 353 351 350 350 350 350 351 348 347 348 349 347 347 343 342 342 343 344 345 346 345 346 346 347 349 350 349
359 364 360 360 360 360 360 357 356 357 358 358 360 364 364 364 365 367 363 354 351 363 354 352 354 354 363 359 355 354 353 356 356 361 365 362 356 354 355 352 352 350 348 348 347 347 349 349 348 349 349 348 348 348 345 343 343 343 341 339 337 336 337 340 343 343 344 344 344 345 346 346 347 346
359 363 362 363 363 364 360 360 357 355 355 357 358 365 368 361 365 363 360 354 353 358 364 360 357 356 357 358 366 354 351 355 354 354 357 366 361 355 357 359 350 349 347 346 346 345 346 346 345 347 347 347 345 342 341 337 335 334 334 333 331 331 334 338 339 338 340 341 343 343 344 345 345 345
363 363 364 362 360 362 360 358 355 355 353 350 348 357 357 362 360 368 360 358 355 351 359 358 360 357 361 354 363 354 355 351 364 354 354 352 359 352 363 357 356 348 347 345 344 344 344 343 343 345 345 345 342 338 335 331 329 330 329 328 328 331 332 333 336 335 336 337 339 340 342 343 343 343
364 360 361 359 358 355 355 357 354 354 353 352 353 353 358 359 357 361 362 358 355 354 354 359 355 356 364 360 359 358 354 362 358 356 352 349 351 351 351 357 357 345 346 344 344 343 342 343 343 342 342 341 339 336 331 327 326 326 326 326 327 330 329 329 331 331 331 332 334 337 339 340 340 341
360 359 361 360 359 360 358 356 356 358 357 356 356 354 360 358 356 358 353 348 345 347 345 353 355 359 357 358 357 354 356 354 358 357 358 356 353 355 355 356 357 350 345 346 344 344 342 341 339 338 338 335 331 329 328 326 325 324 324 324 325 327 327 326 327 328 327 327 328 330 333 335 335 336
363 363 360 359 360 359 353 354 353 352 356 355 356 356 356 355 356 354 356 355 355 347 344 348 352 357 361 359 357 363 357 357 359 361 361 359 358 360 357 356 359 349 342 345 343 342 342 341 338 336 334 332 330 329 327 325 324 323 322 323 323 324 325 326 325 325 325 325 325 324 328 330 332 333
361 360 360 360 360 354 353 354 358 356 358 358 357 361 360 359 359 358 356 357 358 350 349 351 351 356 353 349 353 362 363 360 359 361 362 362 367 359 354 359 360 358 355 354 352 341 339 339 335 335 334 332 330 329 328 326 324 322 321 319 320 322 322 323 324 324 324 323 323 323 324 328 329 331
358 356 355 359 359 356 353 353 355 359 360 358 357 362 361 359 357 355 356 355 354 353 352 352 356 353 358 353 349 361 364 362 360 358 356 356 363 361 355 353 354 358 355 353 348 347 345 344 338 330 331 330 328 328 327 327 325 324 321 320 321 321 320 321 322 322 322 323 322 320 319 322 327 329
357 357 358 356 357 358 357 356 359 360 356 358 353 352 353 355 357 358 357 357 355 352 350 350 350 352 352 354 360 355 357 358 363 357 355 351 351 353 357 357 355 357 356 355 355 350 345 343 338 329 330 330 330 328 329 329 328 326 323 322 324 323 321 320 321 321 321 320 320 319 318 318 322 326
358 356 354 354 356 358 360 362 363 360 359 358 354 354 352 357 360 357 357 357 356 354 353 350 352 351 351 356 355 353 351 349 354 363 357 354 356 355 352 354 361 360 355 354 353 352 352 349 344 337 335 332 331 332 330 330 329 326 323 323 323 323 322 321 320 320 320 320 320 319 319 318 319 323
358 354 351 352 355 358 358 361 363 361 358 359 359 358 356 361 360 360 358 355 354 354 353 352 351 349 348 352 355 354 354 356 359 357 354 350 354 354 351 352 357 361 355 352 352 355 356 351 348 344 340 338 342 335 334 333 329 326 324 323 323 323 322 321 320 319 319 319 319 319 318 319 319 319
356 354 352 352 357 355 354 357 361 362 361 362 365 368 365 365 364 360 357 355 356 355 353 353 352 349 348 350 355 358 355 355 351 351 357 354 352 348 344 341 350 363 355 352 350 353 355 355 351 346 345 338 339 333 330 329 328 325 324 323 323 323 322 323 322 321 319 318 318 318 318 320 319 318
355 353 354 353 352 351 353 356 355 357 361 361 362 363 363 362 367 364 361 358 357 356 354 353 353 351 350 351 355 353 353 355 356 357 357 354 351 348 346 346 344 355 360 354 351 347 351 356 356 353 348 341 336 331 327 327 326 325 324 324 323 323 322 322 323 322 321 320 319 319 319 320 322 319
353 351 352 351 353 350 356 355 354 356 356 359 361 363 363 364 364 349 348 353 360 358 354 353 353 353 353 352 354 354 356 362 355 356 353 354 355 353 350 349 349 352 359 353 348 344 349 356 354 354 339 335 330 326 326 327 326 325 324 324 323 323 322 322 322 321 320 319 318 317 317 317 319 320
353 355 351 350 349 350 351 351 348 351 352 355 357 360 360 359 361 362 356 350 350 354 355 355 353 356 358 354 355 358 359 356 354 352 351 353 353 353 351 355 355 357 361 351 349 346 349 351 350 348 335 332 328 327 325 324 324 324 323 323 322 322 322 321 321 320 320 319 318 316 315 315 315 318
348 351 350 349 350 351 349 342 339 340 342 347 351 354 355 355 356 358 358 358 360 356 355 355 356 357 359 359 360 360 361 359 359 356 354 354 355 356 355 353 353 356 359 355 349 341 349 351 346 349 336 334 331 328 321 322 324 323 322 322 322 322 321 321 320 319 319 319 318 316 314 314 314 315
349 348 350 348 349 348 338 333 330 333 339 344 347 350 352 353 354 356 359 347 349 364 359 358 358 358 358 350 359 358 353 354 358 357 355 353 353 351 346 344 348 355 356 356 348 343 343 349 341 348 337 335 327 327 324 323 324 322 322 322 322 321 320 320 320 320 319 319 318 317 315 313 312 313
350 350 350 350 349 335 330 327 322 325 337 341 344 346 347 350 351 352 354 346 342 338 333 330 332 332 332 334 334 331 332 344 349 350 345 343 350 343 339 341 345 348 353 351 345 339 338 343 340 346 340 334 331 327 326 325 323 322 321 321 321 320 320 319 318 319 319 319 318 317 316 313 313 317
348 351 344 337 333 331 329 321 321 322 332 334 335 337 339 340 344 346 339 340 343 341 340 337 334 333 333 335 336 337 336 334 344 346 340 345 345 340 339 340 344 345 340 334 333 336 336 335 337 349 346 348 340 331 328 326 324 321 319 319 320 320 320 319 318 319 318 318 317 317 315 312 315 327
349 345 342 340 335 332 326 317 318 321 329 330 330 333 335 337 340 338 335 334 337 341 342 344 347 351 349 352 351 351 350 346 349 349 346 347 345 340 341 342 340 338 339 338 331 334 338 331 334 334 336 335 338 335 330 331 328 324 326 325 323 320 320 321 319 317 317 317 317 317 315 313 316 327
334 336 338 337 323 320 317 316 314 315 317 327 330 334 335 336 335 333 331 335 338 338 340 342 346 349 352 354 351 348 349 347 341 336 337 335 336 338 341 341 340 337 328 326 332 336 332 332 329 331 330 329 330 337 338 335 332 329 328 328 325 324 323 322 320 317 315 316 315 315 314 315 315 325
330 332 333 333 326 318 317 314 311 310 312 319 329 335 335 335 333 327 329 334 340 340 342 343 343 345 346 341 340 339 337 337 336 334 333 335 333 332 332 331 326 325 327 329 332 331 331 326 324 327 326 327 325 325 328 337 339 338 336 338 336 335 329 328 329 330 314 313 312 310 310 312 315 319
328 330 334 335 331 318 316 312 309 308 310 314 326 336 323 315 317 328 331 333 338 342 341 338 337 337 337 336 336 337 337 336 335 332 331 331 332 332 331 329 327 324 324 330 330 330 332 323 324 323 324 322 323 324 323 324 328 342 338 340 337 338 338 337 335 335 332 328 326 318 319 317 316 317
326 329 332 335 333 316 309 306 308 309 310 318 327 319 312 314 317 327 332 338 340 339 338 336 334 334 333 331 331 333 334 334 333 332 332 330 330 332 333 334 330 327 328 327 330 329 327 325 327 323 322 324 322 322 322 322 325 327 331 332 334 339 343 337 333 332 335 330 329 319 318 320 314 318
330 332 333 332 316 309 305 306 309 311 317 323 313 310 313 319 326 331 338 338 338 336 333 333 331 330 331 329 327 329 332 335 335 332 329 329 330 330 330 332 332 328 326 324 327 329 329 326 326 327 326 325 322 321 319 323 324 324 323 326 327 330 328 334 334 337 333 329 327 324 323 324 330 320
333 326 315 312 311 311 310 310 311 316 322 315 313 313 316 336 339 339 338 338 338 335 333 332 331 330 330 330 331 332 332 334 334 332 330 330 331 330 329 330 330 329 326 326 327 329 329 328 325 325 324 324 323 322 321 320 322 323 323 322 324 325 327 327 330 328 327 325 323 323 322 323 327 334
323 318 315 314 314 317 317 326 337 342 342 332 326 324 333 337 335 335 335 335 334 332 331 332 331 330 331 333 334 337 335 332 332 335 334 332 331 330 331 330 330 327 328 325 324 330 332 328 327 327 325 324 323 322 322 320 319 320 324 324 324 329 324 322 327 325 325 323 323 323 324 325 328 328
328 331 333 333 325 326 330 334 332 332 335 334 332 333 334 333 333 333 334 332 332 332 331 331 331 331 333 336 336 328 327 326 328 330 330 327 327 327 329 331 327 326 328 329 329 329 329 330 330 328 324 323 323 324 324 323 319 319 322 323 319 317 319 324 327 323 323 323 324 323 326 328 328 336
325 331 337 335 337 340 336 335 330 330 333 331 329 329 329 330 331 332 334 334 331 331 332 331 333 332 329 325 325 325 324 323 323 326 326 325 325 325 326 322 321 323 326 329 328 329 328 329 329 332 327 324 321 323 325 323 321 321 325 323 323 321 324 321 321 321 322 322 322 321 323 327 325 327
328 339 338 335 330 328 327 327 326 325 326 327 326 325 326 326 326 327 326 326 327 327 327 326 326 326 325 324 324 323 322 322 323 324 324 324 324 325 324 321 321 320 319 321 326 331 333 330 328 326 324 324 324 324 321 321 321 326 326 321 321 322 320 320 322 320 321 320 320 320 322 324 323 323
327 334 329 331 328 326 325 323 324 323 323 324 324 324 323 324 323 323 324 324 324 325 325 324 323 323 323 322 323 323 323 324 325 325 325 324 325 323 320 319 319 320 321 320 320 322 324 324 324 324 324 325 326 326 324 320 320 323 320 319 324 319 318 321 320 320 320 319 318 320 318 319 317 317
329 327 324 323 324 324 322 322 322 324 323 323 323 322 323 323 323 323 322 323 324 323 323 323 323 322 322 320 321 321 322 322 322 322 324 324 323 321 319 318 318 319 318 318 319 323 323 320 319 318 319 319 321 325 324 326 323 324 323 322 319 317 318 320 319 318 318 319 323 319 317 321 315 314
327 325 324 323 322 322 320 321 323 321 321 322 322 321 321 321 322 323 322 323 324 323 322 322 322 323 322 321 321 322 322 320 321 321 321 322 320 319 319 319 318 319 319 319 317 317 319 318 318 316 314 312 311 312 320 320 321 321 317 315 316 317 318 318 319 319 319 315 316 316 316 316 314 311
324 324 322 320 321 320 319 320 320 321 320 319 320 321 321 320 321 323 324 324 322 321 321 321 320 320 320 320 319 319 319 320 320 321 320 322 321 321 317 316 317 317 315 314 315 315 317 316 317 315 313 310 308 306 312 320 316 314 320 315 316 317 317 319 318 317 316 314 315 315 312 313 315 313
322 321 320 319 319 320 320 319 319 320 320 320 320 319 319 319 319 319 318 318 318 318 319 318 317 317 317 316 315 315 316 317 317 316 316 316 316 315 314 314 313 313 312 313 314 314 316 317 316 314 311 308 306 305 305 309 310 313 313 318 315 318 319 318 314 314 315 316 315 313 313 313 313 312
319 318 318 317 318 318 317 317 317 317 318 317 317 315 317 317 316 315 315 315 317 315 316 316 314 314 314 313 312 311 311 311 311 312 313 313 313 311 311 311 309 310 309 309 311 312 315 315 313 312 310 308 306 306 307 305 306 310 313 310 315 316 317 316 313 314 314 312 312 313 314 314 310 312
319 318 317 315 315 315 315 315 314 314 314 315 315 316 316 316 316 314 315 316 314 315 314 314 314 312 311 310 310 309 309 309 308 308 309 308 309 309 309 308 307 307 307 307 308 309 310 313 311 310 309 310 310 311 311 311 311 313 313 314 310 313 316 317 315 314 313 315 314 311 309 313 310 311
318 316 316 316 316 316 314 314 314 315 316 318 317 316 318 318 316 314 317 317 315 315 311 311 311 311 310 311 310 308 307 307 307 306 307 306 306 306 306 307 306 307 305 305 306 307 308 310 312 314 313 313 313 314 311 308 307 310 313 319 311 308 310 313 317 315 313 315 314 311 310 310 310 310
319 317 316 320 317 315 315 315 315 314 314 315 314 314 318 317 318 313 317 316 314 316 314 311 309 309 308 308 307 306 305 305 305 305 305 304 303 305 306 304 303 304 303 302 303 305 308 311 313 313 312 311 310 307 304 306 306 307 311 313 316 311 309 308 308 309 318 314 312 310 310 311 310 309
321 320 318 321 316 315 314 314 313 313 312 314 314 314 314 312 312 312 310 310 310 308 306 306 306 306 305 305 305 305 304 304 304 303 303 304 304 303 303 304 304 304 303 303 305 306 307 309 310 309 309 308 308 308 305 307 307 308 309 309 312 314 316 313 310 309 309 310 310 314 315 310 307 303
317 315 315 318 318 316 314 314 313 313 313 313 312 311 310 309 309 310 310 309 308 307 306 305 304 304 304 304 304 304 304 304 304 304 304 304 304 304 304 304 305 305 305 305 305 306 307 308 309 309 307 306 307 306 305 306 306 307 307 308 311 311 310 312 314 313 310 310 309 306 307 308 313 310
318 316 316 317 315 314 314 314 313 312 311 310 309 309 309 309 309 308 308 309 307 306 305 304 303 302 302 302 302 301 302 304 304 304 305 304 304 304 305 305 305 305 304 305 305 305 307 308 308 308 307 307 308 308 309 308 307 307 307 308 308 309 311 312 309 310 311 312 310 309 308 309 310 308
Wind_Speed
7 5 6 3 4 4 3 5 4 4 5 5 2 2 4 0 1 2 3 3 5 3 6 2 2 3 2 3 4 3 2 4 9 7 7 3 5 9 12 11 10 9 7 4 3 2 3 2 3 3 5 6 8 9 9 10 11 12 12 13 13 13 13 13 13 13 12 11 10 10 10 10 11 12
4 5 6 5 4 4 4 4 5 3 3 4 2 3 3 3 4 2 3 4 3 5 5 4 1 3 3 4 4 4 3 7 9 5 4 1 7 12 14 11 11 9 7 6 4 4 3 1 1 2 4 6 7 9 9 10 11 12 13 13 14 14 14 14 14 13 13 12 12 11 11 12 12 12
5 5 6 4 5 5 5 4 6 4 5 5 4 5 3 3 1 1 1 3 2 2 4 4 4 1 2 4 3 4 4 7 9 5 0 1 9 14 12 14 13 9 8 8 6 5 3 2 0 0 3 4 7 8 9 9 11 12 12 13 13 14 13 13 15 15 14 13 12 12 12 13 13 13
5 3 5 5 5 4 4 5 5 5 4 4 4 3 3 3 2 2 1 3 7 3 5 6 6 4 3 3 4 4 7 2 11 4 2 3 7 8 7 13 12 12 10 8 8 6 5 3 3 2 3 4 6 7 8 8 9 10 11 12 12 13 13 14 15 14 14 14 13 13 13 14 15 15
5 4 5 4 5 6 6 5 5 6 5 4 4 3 2 3 2 3 3 4 6 4 3 4 5 5 5 1 1 5 4 3 5 6 4 3 3 3 3 5 11 12 11 10 9 7 6 5 5 3 3 4 5 6 7 8 8 9 9 10 11 11 13 14 14 13 14 14 13 13 15 15 16 16
5 5 5 6 7 5 6 7 8 6 7 7 6 3 3 2 3 2 3 3 4 7 3 4 4 4 3 4 3 4 5 4 1 4 4 4 3 5 1 5 6 11 11 10 9 8 7 7 6 5 4 4 5 5 6 8 7 8 8 9 9 11 12 12 13 13 13 12 13 13 14 15 16 15
4 5 6 7 6 7 7 5 6 7 6 7 6 4 1 2 3 3 4 3 4 6 5 4 5 3 2 3 3 3 4 3 4 4 5 6 5 3 5 5 5 7 10 10 9 9 8 8 7 6 5 4 4 5 5 5 7 7 8 9 10 12 12 12 12 12 12 12 12 13 13 13 14 14
5 6 4 6 6 5 6 9 9 7 6 5 4 5 3 2 4 6 10 11 8 7 8 7 7 6 5 5 4 7 4 4 5 3 3 5 6 5 4 7 1 5 9 9 9 9 9 9 8 7 6 5 5 5 5 7 7 8 8 9 9 10 10 11 11 11 10 10 11 12 12 13 12 13
5 5 5 6 6 4 4 3 7 9 8 8 5 4 4 3 4 1 2 3 3 3 4 5 6 8 5 4 8 4 3 4 3 4 4 4 3 4 5 5 3 5 3 6 7 9 10 9 8 8 7 6 6 5 6 7 7 8 9 9 9 8 8 9 9 10 8 8 9 10 9 11 11 11
5 6 5 5 2 3 2 3 5 6 6 5 5 3 3 2 2 2 3 0 3 4 5 5 7 3 4 3 4 5 3 3 3 3 3 4 2 3 5 3 2 2 1 4 4 5 6 7 9 9 8 7 7 6 6 6 7 8 9 9 9 8 8 7 8 8 9 9 9 9 9 10 10 10
7 6 5 3 3 2 2 4 6 4 2 3 5 5 4 3 2 1 3 3 3 3 5 4 4 3 1 2 4 3 5 3 1 2 3 4 2 1 1 2 2 1 3 5 5 4 6 8 7 8 8 8 8 8 6 7 7 7 9 10 9 8 7 7 7 8 8 9 9 10 10 10 10 10
6 5 5 4 3 3 3 3 4 1 2 1 2 3 2 2 3 2 2 3 3 3 3 4 4 2 3 4 2 1 4 4 2 2 2 4 5 5 1 1 3 2 2 3 4 3 9 7 7 8 6 8 9 10 7 7 6 5 8 10 9 7 7 7 7 7 7 8 8 9 10 10 10 9
7 6 10 12 9 3 4 6 6 3 2 1 1 3 3 4 4 2 2 2 2 3 3 4 3 3 4 2 1 3 3 5 6 0 1 3 3 2 5 4 1 1 2 2 2 4 5 6 6 5 5 5 7 7 8 6 7 5 7 10 9 8 6 7 7 7 7 7 7 8 9 9 9 9
5 7 1 1 7 14 16 13 7 1 2 4 6 6 5 6 4 4 4 4 4 4 4 4 4 5 5 4 3 3 4 3 3 3 4 5 3 1 4 4 2 1 1 1 2 2 6 8 6 7 7 6 7 5 5 3 4 5 7 10 10 8 6 6 6 6 7 7 7 7 7 8 8 8
4 3 3 2 4 5 8 10 12 8 7 8 8 9 10 9 5 4 5 5 4 4 5 5 5 6 7 6 4 3 3 4 5 5 4 5 3 3 2 5 2 1 2 1 2 3 4 8 6 8 7 8 8 5 3 6 8 8 8 9 10 8 6 5 5 6 6 7 6 6 6 6 7 7
1 3 2 3 1 2 4 1 4 5 9 10 10 9 8 6 7 6 5 5 5 5 6 6 6 6 7 6 4 5 4 4 4 5 4 4 5 4 3 3 3 3 2 1 2 7 7 9 5 3 6 9 6 5 9 10 8 8 8 9 8 8 7 5 4 4 5 5 6 5 5 4 4 5
1 0 2 2 2 3 5 5 5 5 6 8 9 9 8 8 6 8 10 8 7 6 7 9 8 7 6 7 6 4 5 2 5 4 5 5 4 4 4 4 4 3 4 2 3 5 8 5 3 3 6 6 4 6 7 9 8 8 8 9 8 7 7 5 4 4 3 4 4 4 4 3 1 2
2 2 1 1 2 2 4 4 6 7 7 6 5 4 3 4 6 7 7 11 12 9 7 8 9 7 5 8 8 7 5 7 7 6 7 5 6 5 5 3 4 3 5 5 1 4 7 4 4 4 5 5 5 5 7 10 8 8 9 8 8 7 6 5 4 3 2 3 4 4 3 3 1 1
6 5 5 5 3 2 4 4 8 7 7 7 6 5 5 5 5 5 6 6 5 5 6 8 10 8 6 7 8 7 6 7 6 6 8 8 7 3 3 5 4 2 4 5 3 3 6 3 5 2 7 6 5 4 6 9 8 8 8 8 8 7 7 5 4 2 1 1 1 3 2 2 1 3
1 3 1 2 2 5 5 8 10 9 6 6 7 7 7 6 6 5 5 7 8 7 6 7 8 8 9 8 7 6 5 6 7 7 8 6 6 4 3 5 2 3 3 4 5 4 5 5 3 1 6 5 5 4 4 7 8 8 9 8 8 7 6 5 4 3 2 1 2 3 1 0 2 6
3 2 1 1 4 6 5 6 7 9 10 5 6 7 7 6 6 6 5 8 8 7 9 10 11 11 12 13 13 12 7 5 3 4 6 9 5 3 6 5 4 4 3 2 2 3 3 2 4 5 8 7 6 6 5 4 8 9 8 7 7 7 7 6 6 5 5 3 3 4 5 8 9 1
4 5 14 8 4 3 2 2 5 9 8 5 5 6 8 7 7 5 8 7 8 11 9 9 9 9 10 12 11 10 10 7 0 4 8 7 0 6 8 8 4 2 4 4 6 2 2 5 7 3 1 2 5 7 4 3 5 6 3 5 7 8 8 7 7 7 6 4 4 7 6 8 10 1
7 6 7 9 5 3 2 3 5 6 7 4 5 5 5 6 7 6 7 7 9 9 9 8 8 7 6 5 5 6 7 8 10 9 8 8 7 8 8 5 2 1 1 4 5 1 2 4 4 5 2 1 2 5 7 7 4 4 3 3 5 9 8 8 7 7 7 3 3 5 8 8 7 5
4 3 2 5 6 5 6 8 8 6 4 3 4 4 4 5 6 6 7 8 7 7 7 7 7 7 7 6 7 7 7 8 10 10 10 10 8 7 5 2 4 0 3 6 8 0 4 6 5 6 5 2 1 2 4 3 4 4 5 4 4 7 8 6 5 9 8 4 4 5 6 8 6 4
5 4 4 3 4 8 8 8 8 7 6 5 4 3 3 3 5 6 5 7 10 6 7 7 8 8 8 7 6 8 8 7 7 9 9 9 9 8 7 7 7 6 4 9 11 4 4 4 5 7 8 4 5 5 4 2 3 5 6 6 3 5 4 5 5 4 6 5 4 5 7 6 4 2
2 3 2 3 4 8 9 9 8 7 7 7 5 4 2 6 7 5 5 5 5 5 6 6 7 8 7 7 7 7 7 7 7 8 8 7 7 8 8 7 7 6 6 8 12 7 3 6 7 5 5 5 5 7 5 5 5 5 3 4 2 2 2 2 2 2 3 4 3 4 5 7 7 2
4 4 3 4 7 9 9 9 9 8 8 6 5 6 7 8 9 7 4 5 5 6 6 6 7 6 7 7 7 7 7 7 7 6 6 6 6 7 7 8 8 7 5 6 8 8 7 5 6 6 5 5 4 5 5 5 5 8 7 6 3 1 1 3 3 2 2 5 5 8 10 8 7 7
4 5 4 5 10 13 11 9 8 7 6 5 10 9 8 9 8 4 4 5 5 5 6 6 6 6 5 5 5 5 4 4 4 4 5 5 5 5 4 3 6 7 6 5 5 7 6 6 5 5 4 4 4 3 5 5 5 5 6 6 6 4 3 3 2 3 5 4 6 5 6 6 2 2
4 8 12 14 13 11 12 11 8 6 7 9 9 7 8 10 4 6 6 5 4 4 5 5 5 5 4 3 2 2 3 3 3 3 3 3 3 3 3 4 4 3 4 5 5 4 3 4 5 4 5 5 4 4 4 4 5 5 6 6 4 4 6 6 6 7 5 5 5 5 5 5 5 3
11 12 12 14 13 8 6 4 2 2 4 4 6 6 5 5 6 6 7 7 6 5 5 5 4 2 1 2 2 1 3 5 5 3 0 0 0 1 1 2 2 2 1 3 5 2 1 3 3 2 2 2 3 3 3 5 5 5 5 5 5 3 6 5 6 5 5 5 5 4 5 6 5 6
6 8 7 6 8 2 2 1 1 2 8 10 9 6 7 6 6 6 6 6 6 5 5 5 5 4 4 3 3 6 6 6 6 6 6 5 5 5 4 2 2 4 5 4 4 3 2 2 2 2 2 2 2 2 2 2 4 4 4 3 5 3 4 4 4 4 4 4 4 5 5 6 6 3
6 5 6 2 4 4 4 5 5 7 6 7 7 7 7 8 8 10 11 10 7 6 6 5 4 4 5 6 6 5 6 6 6 6 6 6 6 6 5 4 5 4 4 3 2 3 4 2 2 2 2 2 3 2 2 3 4 4 3 0 1 3 3 4 4 4 4 4 5 5 6 5 5 5
6 4 2 4 4 5 5 5 6 6 6 6 7 9 8 7 7 7 7 7 8 8 8 8 7 7 7 6 6 5 5 6 6 7 7 6 6 5 4 3 3 4 4 4 3 0 0 2 2 4 4 4 5 5 4 5 4 3 2 1 1 2 3 4 4 4 4 3 4 5 5 5 6 8
3 4 5 5 4 5 6 6 6 7 6 7 6 6 7 7 8 8 7 6 6 6 6 6 6 6 5 6 6 6 5 4 4 5 5 5 5 5 6 5 4 4 4 4 4 4 3 3 4 5 5 5 5 6 6 5 4 3 4 4 2 3 4 4 4 4 3 4 5 4 4 4 8 5
5 7 6 7 7 6 7 7 7 6 6 6 6 6 6 7 9 7 6 5 4 4 4 4 4 4 4 4 4 3 4 4 4 4 4 4 4 5 5 5 4 5 5 6 6 4 3 4 5 5 4 5 5 2 5 3 3 2 3 2 4 3 4 4 5 5 6 6 3 2 4 1 6 4
6 5 6 6 7 7 8 8 7 8 8 7 7 6 7 7 6 6 6 6 6 4 4 4 3 2 2 1 0 2 1 1 2 3 3 2 2 3 3 4 4 4 4 4 6 6 6 5 5 5 5 5 6 4 1 4 4 2 3 4 4 4 3 3 3 4 4 6 6 6 5 2 5 4
6 6 6 6 6 7 7 7 7 6 7 7 7 7 6 6 5 6 7 6 7 7 7 6 7 7 5 6 6 6 6 4 3 3 3 3 1 1 3 4 5 5 6 6 5 6 6 5 4 4 4 4 4 4 3 1 4 3 3 4 3 2 3 2 3 4 4 4 4 4 5 4 4 5
6 6 6 7 7 6 7 7 7 6 6 6 6 7 7 7 7 8 8 8 8 7 6 6 7 7 6 7 7 7 7 6 6 7 7 7 6 5 5 5 5 5 5 6 6 7 6 5 4 5 4 3 3 4 4 5 5 4 0 2 3 3 2 1 2 2 3 4 3 4 4 5 4 4
7 7 7 7 7 7 7 7 7 7 7 6 6 7 6 5 5 6 6 6 6 7 7 6 7 7 7 7 7 7 8 8 8 7 7 6 6 6 6 5 6 5 7 7 6 6 5 4 4 4 4 4 4 4 4 5 7 7 6 7 5 3 2 1 3 1 1 2 3 4 4 6 10 12
6 6 7 7 7 6 6 7 6 6 7 6 5 3 3 4 4 3 3 3 4 5 5 4 4 4 3 4 4 4 5 6 7 7 7 7 7 8 7 6 6 6 6 6 6 5 6 4 5 4 4 4 4 4 4 5 6 7 9 9 12 9 3 2 3 1 1 1 2 2 4 1 5 5
5 5 5 4 3 3 5 4 4 4 3 2 2 3 4 4 3 2 2 2 1 2 4 5 5 6 5 4 4 4 4 3 4 4 5 5 7 7 9 9 6 6 6 7 6 5 4 4 7 12 8 4 4 4 5 5 5 4 4 2 3 11 10 4 1 2 2 1 1 2 3 3 1 1
4 5 5 2 4 6 5 4 3 4 5 5 5 5 2 1 4 2 3 5 5 3 2 4 4 5 7 7 8 8 8 8 7 7 7 6 6 5 6 5 6 6 7 7 8 7 6 6 6 5 4 5 4 4 5 5 5 5 4 4 3 4 3 6 9 8 3 2 2 2 2 1 2 1
2 2 2 2 5 4 5 5 5 5 5 5 4 4 6 6 7 7 6 8 8 9 9 8 8 7 7 7 7 6 6 5 6 6 6 6 6 6 5 3 3 4 4 4 5 6 5 4 4 4 4 4 5 5 6 6 6 5 5 4 2 0 3 9 12 16 7 2 1 1 1 1 0 1
4 5 6 4 3 5 5 4 4 4 3 3 3 4 5 7 7 7 6 5 5 6 7 7 8 8 8 8 8 7 7 6 5 5 5 5 6 6 6 6 6 4 4 4 4 4 5 4 4 4 4 4 4 5 5 5 5 5 6 5 3 4 5 5 6 8 2 4 5 3 3 3 4 5
3 4 4 4 5 4 4 4 5 6 6 7 7 7 6 5 6 6 6 6 6 8 8 7 7 7 7 7 7 7 8 9 9 8 6 5 5 6 6 5 5 5 5 5 5 5 4 3 4 4 6 6 5 6 6 5 5 5 6 5 5 4 3 2 3 1 3 4 8 11 9 7 6 8
Wind_Direction
261 241 255 268 261 258 265 270 299 301 282 270 258 277 297 5 239 296 296 292 303 316 305 308 240 228 232 251 258 297 197 197 193 218 236 192 177 187 213 212 212 211 205 185 200 239 258 278 315 340 350 348 351 354 353 355 354 355 358 0 2 1 3 5 8 9 10 10 8 5 7 9 19 29
262 274 278 268 275 267 273 295 277 278 304 292 271 269 262 222 237 245 266 285 297 300 309 302 217 215 245 230 231 256 224 222 204 240 218 233 155 190 208 209 208 203 188 180 179 209 209 263 342 3 9 358 0 2 2 3 3 1 4 4 6 9 10 14 12 13 12 12 11 10 8 12 20 27
264 267 267 277 266 270 266 235 254 244 241 260 272 277 271 290 126 128 167 284 250 297 300 316 295 251 206 258 315 308 294 233 220 243 294 293 161 192 211 209 202 185 178 174 183 189 199 192 111 245 26 13 14 15 16 16 15 13 12 10 8 8 12 16 19 18 16 14 12 11 9 12 19 25
251 266 278 269 273 272 270 273 272 269 263 263 250 232 203 239 233 172 209 253 280 276 281 302 314 300 288 294 271 264 259 201 199 245 228 264 192 205 225 206 185 179 173 181 180 188 183 171 188 133 64 39 36 32 31 27 27 24 18 13 10 9 14 20 22 21 18 16 16 11 11 15 20 24
267 243 244 266 276 280 280 285 287 285 278 258 236 229 264 257 209 208 219 261 277 273 274 292 284 280 277 276 289 285 293 268 226 231 242 221 232 259 262 149 175 172 179 182 180 180 177 180 183 140 104 73 60 51 44 40 35 31 24 17 14 14 22 26 27 25 21 19 17 16 19 20 26 28
264 273 282 268 256 253 261 266 268 270 273 269 273 231 228 243 261 188 240 247 259 280 287 282 275 297 301 279 222 265 263 260 295 309 306 303 297 279 357 146 168 184 185 183 181 177 177 183 178 140 122 97 86 73 64 56 46 38 30 23 21 27 30 28 32 31 27 21 16 21 23 27 28 31
270 271 258 265 270 273 272 274 283 285 289 305 321 325 239 229 235 234 225 258 269 289 292 284 292 291 287 259 287 272 278 301 293 280 273 275 279 298 347 58 1 207 195 186 180 179 180 186 175 143 126 106 100 92 78 74 61 50 41 35 32 38 35 34 36 35 29 27 25 25 25 27 29 31
265 269 288 288 291 316 351 348 331 311 318 319 289 292 315 326 336 5 37 37 356 336 328 317 316 314 317 336 326 313 332 355 355 338 344 346 338 346 324 92 85 223 222 196 186 184 188 189 160 139 129 124 107 93 88 77 71 61 52 44 43 43 43 41 39 38 29 25 26 26 31 29 30 30
256 254 253 257 263 72 46 334 293 302 311 298 307 330 32 57 71 120 63 106 177 194 261 297 304 306 304 335 332 1 350 320 327 340 324 333 337 6 18 52 7 85 158 278 231 191 197 188 151 137 142 138 126 109 95 84 77 73 64 54 49 45 46 45 40 39 28 20 28 28 20 28 25 28
264 268 279 289 40 94 166 226 241 249 263 294 320 13 2 37 73 46 94 178 238 223 236 239 278 299 344 348 287 292 334 322 304 315 331 328 12 28 1 37 66 352 228 191 215 246 232 197 156 154 155 144 138 127 108 97 88 84 80 67 56 52 48 45 42 38 37 36 31 30 28 29 28 27
267 278 287 309 76 109 167 249 265 272 334 345 1 11 355 18 35 201 155 185 205 242 257 258 250 286 190 199 275 328 354 305 272 262 303 303 267 90 78 1 33 29 325 303 258 227 242 192 173 163 160 154 143 132 118 104 98 91 89 80 69 57 50 46 41 38 37 38 36 37 36 33 32 32
289 284 269 245 214 203 209 237 285 354 291 330 14 24 332 326 282 243 215 192 198 236 270 267 285 280 287 275 191 4 282 296 260 241 254 260 288 312 338 165 328 346 32 318 336 227 222 183 158 151 161 161 147 129 124 115 103 102 98 93 80 64 53 47 43 38 36 35 36 36 37 35 35 36
283 315 3 352 341 315 254 255 258 269 304 13 312 266 258 257 202 226 225 216 211 247 254 256 228 253 259 252 124 254 269 248 271 304 303 269 270 314 316 312 158 156 264 291 352 335 280 219 180 175 171 190 177 157 140 124 118 124 113 102 94 78 62 53 49 43 36 32 32 35 37 37 36 40
325 70 184 174 344 321 316 298 298 351 286 246 243 234 234 242 243 246 236 236 233 236 248 260 258 264 266 255 244 221 238 278 299 271 246 259 275 309 291 285 270 133 42 343 319 225 243 239 199 183 184 186 196 178 183 158 141 157 131 112 103 95 79 66 61 53 44 36 31 29 32 39 39 38
18 23 65 31 27 8 314 321 340 323 281 262 268 242 242 255 247 250 259 267 268 253 248 258 256 259 264 264 248 202 235 229 238 248 244 246 251 250 277 297 303 141 107 74 268 279 239 264 200 200 187 175 191 153 136 143 156 164 135 116 107 104 95 79 71 63 55 48 40 32 26 35 45 38
46 20 31 79 73 232 228 302 301 311 323 331 328 320 307 285 239 245 251 276 276 258 264 261 252 261 264 267 248 257 251 252 239 235 239 220 220 207 207 212 256 209 134 125 359 286 273 248 257 244 174 175 166 145 153 167 173 155 132 116 114 112 108 100 87 77 71 63 56 47 38 29 39 48
72 274 358 19 167 260 315 334 322 325 319 315 314 304 300 295 271 235 246 248 255 286 280 278 276 262 277 275 264 248 264 215 259 258 256 248 230 215 221 225 239 261 175 139 240 264 267 234 205 226 124 135 100 113 151 178 172 154 138 129 129 126 123 121 114 101 97 91 79 72 55 46 27 69
52 36 43 12 347 312 310 350 347 335 323 320 311 303 297 298 308 302 237 233 245 245 259 271 272 273 254 261 271 272 274 276 266 266 263 265 269 247 240 234 225 219 160 189 178 283 270 261 247 220 137 118 126 148 176 184 175 162 146 146 140 140 137 133 135 131 120 106 104 94 74 44 91 215
28 353 24 349 313 348 49 28 4 342 328 321 315 308 301 297 293 287 290 278 241 233 259 259 267 273 268 273 280 277 273 270 273 259 264 265 259 254 283 286 264 237 155 145 113 253 281 289 271 221 139 143 133 132 159 196 182 164 159 159 156 154 155 152 160 183 156 81 69 107 103 68 323 220
257 266 228 182 277 67 59 10 355 344 326 313 311 311 309 304 295 287 302 298 282 264 248 260 265 272 292 302 290 299 314 306 291 287 281 285 265 250 255 254 252 204 178 155 164 218 248 246 295 305 136 125 134 154 169 212 200 178 178 172 169 173 169 175 183 206 246 274 322 339 35 135 254 244
132 176 162 179 49 58 44 1 343 343 342 324 329 322 319 312 308 302 315 332 354 349 330 314 312 313 308 305 303 301 296 286 345 8 313 276 269 321 303 295 258 232 162 119 344 288 262 252 222 228 133 157 154 168 183 179 207 206 193 181 184 185 189 187 202 218 236 257 302 319 342 345 349 229
70 73 71 67 71 86 82 346 1 352 351 345 343 337 335 331 319 7 16 339 332 335 319 301 279 273 282 285 286 282 269 258 223 240 246 270 162 244 237 246 243 8 33 30 348 0 316 343 340 338 299 89 153 158 131 186 199 201 229 233 217 215 209 206 212 223 231 243 293 314 344 4 356 74
98 97 83 84 84 81 57 23 22 6 0 345 336 336 322 325 335 12 348 339 325 331 329 325 322 308 285 270 270 284 267 217 228 232 249 252 221 228 230 237 40 140 125 359 339 63 349 359 331 346 342 317 0 105 152 185 184 172 196 197 237 236 229 229 229 231 238 224 281 313 329 359 19 0
80 74 146 118 95 70 30 13 6 360 359 333 326 322 327 345 334 345 331 322 328 317 322 319 313 310 317 332 6 15 17 39 40 40 34 30 15 358 343 266 222 343 46 339 331 106 23 9 30 8 29 17 27 111 163 175 181 173 189 182 225 225 231 249 261 247 240 210 247 282 306 334 24 14
30 21 18 349 79 48 21 7 352 333 327 314 299 300 311 339 321 319 316 315 315 312 325 345 359 2 24 40 42 47 52 50 42 45 42 44 34 36 30 33 48 70 28 2 338 63 44 39 27 29 22 351 15 355 360 357 176 189 173 192 173 170 198 220 218 206 203 212 243 271 294 276 318 28
0 326 341 329 56 35 14 351 330 320 316 306 297 290 314 314 324 327 310 289 298 358 26 31 22 26 26 30 33 44 49 49 48 47 44 38 41 42 49 52 58 57 18 2 4 10 17 48 29 35 27 21 346 354 342 330 325 33 137 166 173 185 212 211 83 77 146 181 202 209 248 254 249 215
305 309 325 325 0 354 345 331 319 321 321 316 274 313 336 319 314 307 287 295 17 37 42 50 44 32 35 35 31 33 39 46 56 57 53 52 50 50 47 62 64 61 29 18 15 24 39 55 34 41 27 16 3 347 336 337 355 350 354 358 350 306 339 61 86 56 59 60 36 6 348 333 235 228
304 294 303 317 323 318 313 309 308 307 303 282 301 317 311 306 290 269 295 43 59 62 56 53 55 52 40 50 42 32 23 28 43 54 47 46 55 62 46 47 92 99 78 61 26 28 34 48 33 26 28 10 3 340 326 317 330 347 345 349 326 32 15 25 55 49 56 45 43 5 340 327 334 222
306 307 306 307 303 299 292 286 290 284 265 256 266 285 303 300 7 20 23 28 48 53 51 55 53 56 50 31 31 16 28 40 45 53 49 45 43 49 46 40 66 74 91 96 75 45 40 50 43 10 23 4 3 349 332 318 330 347 346 329 325 354 28 9 23 49 38 35 10 351 315 305 298 207
295 292 288 285 285 277 258 259 264 290 311 291 251 256 281 34 39 34 30 32 32 40 37 49 62 67 15 0 297 15 37 26 15 9 56 202 69 251 311 43 81 127 132 121 118 148 34 79 79 41 40 17 20 328 2 350 334 320 317 316 324 336 29 6 65 48 34 14 340 324 316 290 283 278
319 299 297 293 296 335 195 291 328 334 29 39 33 37 63 49 43 38 47 36 31 27 44 48 53 38 24 4 15 29 25 26 18 11 20 22 19 8 1 5 33 35 1 9 48 59 52 39 53 34 19 347 307 292 306 319 274 282 302 4 11 357 312 344 73 69 29 355 334 324 313 306 297 338
300 293 290 322 26 54 61 46 54 42 45 48 44 35 36 46 37 32 35 45 35 29 24 27 24 46 43 36 30 32 29 25 17 10 19 18 11 9 1 24 17 7 350 354 54 30 43 42 355 322 300 267 274 267 266 267 267 266 274 63 355 309 326 19 26 38 11 351 344 325 304 299 326 64
306 304 66 39 60 61 66 67 56 49 45 64 58 47 40 42 40 28 25 26 32 27 26 28 26 24 35 33 29 27 30 22 10 7 7 12 11 357 7 17 2 353 354 351 360 340 284 352 330 313 289 277 253 251 250 266 267 256 176 46 14 325 18 16 34 17 354 345 322 299 305 343 10 79
291 354 27 23 35 56 51 51 55 44 34 36 50 63 47 40 44 39 35 32 30 34 34 31 34 29 23 27 19 22 18 8 7 360 355 353 353 355 354 346 358 350 337 328 317 309 330 317 309 298 291 279 253 231 215 226 273 339 1 330 4 37 25 5 18 348 321 294 284 296 314 29 77 73
32 39 30 25 10 45 53 41 35 39 46 40 27 34 40 34 31 37 22 13 40 34 46 41 49 46 36 27 16 14 10 354 1 354 358 347 353 352 353 346 350 349 347 333 326 328 337 327 325 318 312 318 319 61 11 9 285 350 309 4 50 16 5 17 354 330 313 304 293 330 300 89 99 76
30 30 42 33 28 23 35 42 41 33 26 26 31 26 29 36 32 23 25 360 3 27 19 25 44 55 89 53 313 271 295 327 351 328 317 322 336 350 335 340 341 334 326 345 354 347 340 330 330 333 336 341 329 319 221 34 40 27 6 359 11 2 6 3 335 308 331 345 346 330 319 13 116 133
37 32 43 42 39 33 30 33 35 38 32 22 22 25 28 34 31 16 5 19 10 5 11 359 16 4 12 14 359 352 349 337 328 282 265 239 220 334 345 344 344 355 4 356 340 332 332 323 332 332 342 335 330 341 7 22 2 24 54 356 346 340 322 324 309 333 351 341 334 3 354 338 50 110
31 31 38 38 27 31 34 29 28 34 29 14 31 22 22 20 25 26 16 15 11 356 353 14 23 7 6 15 1 353 344 350 352 354 357 359 11 13 4 357 0 4 347 338 335 318 308 312 2 25 12 4 333 341 335 343 338 332 33 280 310 319 325 352 327 323 323 317 354 353 339 335 75 94
37 35 35 37 31 27 30 25 20 23 31 23 30 18 13 22 30 23 16 15 7 355 340 18 29 6 13 15 7 0 355 355 353 353 353 356 360 1 353 358 349 341 334 317 318 303 315 26 37 17 17 357 339 322 325 308 296 306 292 232 238 279 229 177 279 262 299 345 329 333 319 70 88 101
50 48 39 36 32 30 33 23 18 23 27 25 32 12 348 356 45 31 32 19 18 353 346 9 42 24 17 18 359 358 351 356 353 348 353 353 351 347 344 343 327 316 306 309 310 328 321 16 34 10 337 315 290 283 280 282 286 284 284 274 222 217 240 204 230 206 249 203 299 307 315 223 172 188
72 66 63 48 55 80 68 47 18 1 360 347 38 17 348 355 58 29 3 9 135 18 5 6 356 349 348 347 349 345 348 343 342 333 339 351 343 338 333 333 326 326 327 322 323 318 328 22 337 331 314 283 278 269 268 264 264 271 283 329 254 225 233 267 296 262 242 181 217 277 287 323 315 307
26 64 58 16 9 19 50 46 31 22 351 332 348 342 329 214 219 164 49 359 358 1 354 28 25 5 1 5 11 8 2 352 348 354 354 346 326 315 320 331 331 338 337 331 331 328 328 326 318 314 299 295 288 282 280 285 292 293 290 314 8 48 7 307 282 263 242 216 224 236 261 294 2 340
145 144 160 79 78 68 48 29 20 12 358 355 4 353 326 345 357 19 25 26 18 24 23 21 16 13 5 2 359 353 344 340 347 334 324 309 301 302 297 280 266 268 264 271 275 286 290 297 300 297 297 296 289 287 286 290 296 298 291 275 272 345 242 242 249 257 241 208 217 249 155 159 131 315
31 27 21 28 86 73 54 36 30 7 347 341 10 23 11 354 358 2 28 31 25 20 24 18 12 7 3 358 353 339 331 329 313 303 307 316 311 310 322 320 313 297 286 270 264 259 258 264 272 268 257 252 269 276 276 282 284 299 309 312 281 244 250 240 237 249 200 231 222 212 212 185 199 206
46 34 25 9 40 45 42 26 15 14 2 8 356 1 3 5 360 2 9 12 28 27 20 18 15 6 357 352 343 340 339 333 328 326 317 309 316 314 300 290 284 297 308 317 307 304 301 289 279 268 271 260 237 238 250 256 253 236 247 252 268 263 273 13 349 305 211 222 219 207 213 220 233 248